Time,TemperatureF,DewpointF,PressureIn,WindDirection,WindDirectionDegrees,WindSpeedMPH,WindSpeedGustMPH,Humidity,HourlyPrecipIn,Conditions,Clouds,dailyrainin,SoftwareType,DateUTC
2013-06-20 00:12:00,59.0,-99.9,-100.00,South,174,5.0,-999.0,-999,-99.99,,,-99.99,,2013-06-20 07:12:00,
2013-06-20 00:20:00,58.0,-99.9,-100.00,South,189,9.0,-999.0,-999,-99.99,,,-99.99,,2013-06-20 07:20:00,
2013-06-20 01:12:00,58.0,-99.9,-100.00,South,189,9.0,-999.0,-999,-99.99,,,-99.99,,2013-06-20 08:12:00,
2013-06-20 01:20:00,57.0,-99.9,-100.00,South,185,7.0,-999.0,-999,-99.99,,,-99.99,,2013-06-20 08:20:00,
2013-06-20 02:02:00,57.0,-99.9,-100.00,South,185,7.0,-999.0,-999,-99.99,,,-99.99,,2013-06-20 09:02:00,
2013-06-20 02:12:00,57.0,-99.9,-100.00,South,185,7.0,-999.0,-999,-99.99,,,-99.99,,2013-06-20 09:12:00,
2013-06-20 02:20:00,56.0,-99.9,-100.00,SSW,194,5.0,-999.0,-999,-99.99,,,-99.99,,2013-06-20 09:20:00,
2013-06-20 03:02:00,56.0,-99.9,-100.00,SSW,194,5.0,-999.0,-999,-99.99,,,-99.99,,2013-06-20 10:02:00,
2013-06-20 03:12:00,56.0,-99.9,-100.00,SSW,194,5.0,-999.0,-999,-99.99,,,-99.99,,2013-06-20 10:12:00,
2013-06-20 03:20:00,56.0,-99.9,-100.00,South,175,5.0,-999.0,-999,-99.99,,,-99.99,,2013-06-20 10:20:00,
2013-06-20 04:02:00,56.0,-99.9,-100.00,South,175,5.0,-999.0,-999,-99.99,,,-99.99,,2013-06-20 11:02:00,
2013-06-20 04:12:00,56.0,-99.9,-100.00,South,175,5.0,-999.0,-999,-99.99,,,-99.99,,2013-06-20 11:12:00,
2013-06-20 04:20:00,56.0,-99.9,-100.00,SW,216,5.0,-999.0,-999,-99.99,,,-99.99,,2013-06-20 11:20:00,
2013-06-20 05:02:00,56.0,-99.9,-100.00,SW,216,5.0,-999.0,-999,-99.99,,,-99.99,,2013-06-20 12:02:00,
2013-06-20 05:12:00,56.0,-99.9,-100.00,SW,216,5.0,-999.0,-999,-99.99,,,-99.99,,2013-06-20 12:12:00,
2013-06-20 05:20:00,56.0,-99.9,-100.00,South,190,6.0,-999.0,-999,-99.99,,,-99.99,,2013-06-20 12:20:00,
2013-06-20 06:12:00,56.0,-99.9,-100.00,South,190,6.0,-999.0,-999,-99.99,,,-99.99,,2013-06-20 13:12:00,
2013-06-20 06:20:00,55.0,-99.9,-100.00,SSW,192,6.0,-999.0,-999,-99.99,,,-99.99,,2013-06-20 13:20:00,
2013-06-20 07:11:00,55.0,-99.9,-100.00,SSW,192,6.0,-999.0,-999,-99.99,,,-99.99,,2013-06-20 14:11:00,
2013-06-20 07:20:00,55.0,-99.9,-100.00,ENE,59,0.0,-999.0,-999,-99.99,,,-99.99,,2013-06-20 14:20:00,
2013-06-20 08:12:00,55.0,-99.9,-100.00,ENE,59,0.0,-999.0,-999,-99.99,,,-99.99,,2013-06-20 15:12:00,
2013-06-20 08:20:00,56.0,-99.9,-100.00,SSW,195,6.0,-999.0,-999,-99.99,,,-99.99,,2013-06-20 15:20:00,
2013-06-20 09:02:00,56.0,-99.9,-100.00,SSW,195,6.0,-999.0,-999,-99.99,,,-99.99,,2013-06-20 16:02:00,
2013-06-20 09:12:00,56.0,-99.9,-100.00,SSW,195,6.0,-999.0,-999,-99.99,,,-99.99,,2013-06-20 16:12:00,
2013-06-20 09:20:00,57.0,-99.9,-100.00,South,178,3.0,-999.0,-999,-99.99,,,-99.99,,2013-06-20 16:20:00,
2013-06-20 10:02:00,57.0,-99.9,-100.00,South,178,3.0,-999.0,-999,-99.99,,,-99.99,,2013-06-20 17:02:00,
2013-06-20 10:12:00,57.0,-99.9,-100.00,South,178,3.0,-999.0,-999,-99.99,,,-99.99,,2013-06-20 17:12:00,
2013-06-20 10:20:00,59.0,-99.9,-100.00,SSE,167,2.0,-999.0,-999,-99.99,,,-99.99,,2013-06-20 17:20:00,
2013-06-20 11:01:00,59.0,-99.9,-100.00,SSE,167,2.0,-999.0,-999,-99.99,,,-99.99,,2013-06-20 18:01:00,
2013-06-20 11:12:00,59.0,-99.9,-100.00,SSE,167,2.0,-999.0,-999,-99.99,,,-99.99,,2013-06-20 18:12:00,
2013-06-20 11:20:00,60.0,-99.9,-100.00,SSW,205,5.0,-999.0,-999,-99.99,,,-99.99,,2013-06-20 18:20:00,
2013-06-20 12:02:00,60.0,-99.9,-100.00,SSW,205,5.0,-999.0,-999,-99.99,,,-99.99,,2013-06-20 19:02:00,
2013-06-20 12:11:00,60.0,-99.9,-100.00,SSW,205,5.0,-999.0,-999,-99.99,,,-99.99,,2013-06-20 19:11:00,
2013-06-20 12:20:00,61.0,-99.9,-100.00,South,176,2.0,-999.0,-999,-99.99,,,-99.99,,2013-06-20 19:20:00,
2013-06-20 13:02:00,61.0,-99.9,-100.00,South,176,2.0,-999.0,-999,-99.99,,,-99.99,,2013-06-20 20:02:00,
2013-06-20 13:12:00,61.0,-99.9,-100.00,South,176,2.0,-999.0,-999,-99.99,,,-99.99,,2013-06-20 20:12:00,